Flag for Germany Weather past 2 weeks in Weißenfels, Saxony-Anhalt, Germany

Now
34 °F

Overcast.


Feels Like: 30 °F
Forecast: 35 / 45 °F
Wind: 5 mph from Southwest

Location: Leipzig-Schkeuditz

Current Time: Mar 4, 2015 at 4:14:01 AM

Latest Report: Mar 4, 2015 at 3:00 AM


Visibility: 31 mi

Pressure: 30.05 "Hg

Humidity: 93%

Dew point: 32 °F

Location of WeißenfelsLocation

Historic Weather in Weißenfels — Graph

°F

Weißenfels temperature yesterday

Maximum temperature yesterday: 45 °F (at 5:00 PM)
Minimum temperature yesterday: 33 °F (at 7:00 AM)
Average temperature yesterday: 39 °F

Past Weeks' High & Low Weather Summary

 TemperatureHumidityPressure
High51 °F (Feb 20, 3:00 PM)99% (Feb 18, 6:00 AM)30.77 "Hg (Feb 18, 6:00 AM)
Low25 °F (Feb 17, 5:00 AM)36% (Feb 26, 5:00 PM)29.41 "Hg (Feb 21, 1:00 PM)
Average37 °F78%29.98 "Hg
* Reported Feb 17 3:00 AM — Mar 4 3:00 AM, Weißenfels, Weather by CustomWeather, © 2015

Note: Actual official high and low records may vary slightly from our data, if they occured in-between our weather recording intervals... More about our weather records

Advertising

Weißenfels weather history for previous 24 hours

 ConditionsComfort  
Time TempWeatherWind HumidityBarometerVisibility
3:00 AM
Wed, Mar 4
34 °FOvercast.5 mph93%30.05 "Hg31 mi
2:00 AM35 °FPassing clouds.5 mph97%30.04 "Hg31 mi
1:00 AM36 °FOvercast.5 mph94%30.03 "Hg28 mi
12:00 AM37 °FLight rain. Overcast.5 mph91%30.02 "Hg25 mi
11:00 PM
Tue, Mar 3
38 °FOvercast.7 mph90%30.00 "Hg28 mi
9:00 PM44 °FOvercast.8 mph57%29.94 "Hg37 mi
8:00 PM44 °FOvercast.8 mph55%29.95 "Hg37 mi
7:00 PM45 °FLight rain. Overcast.10 mph52%29.97 "Hg31 mi
6:00 PM45 °FOvercast.7 mph48%29.98 "Hg37 mi
5:00 PM45 °FOvercast.5 mph48%30.00 "Hg37 mi
3:00 PM45 °FPartly sunny.7 mph54%30.06 "Hg37 mi
2:00 PM44 °FPartly sunny.12 mph54%30.08 "Hg37 mi
1:00 PM44 °FPartly sunny.9 mph62%30.09 "Hg37 mi
12:00 PM42 °FPartly sunny.10 mph64%30.09 "Hg37 mi
11:00 AM40 °FPartly sunny.10 mph67%30.09 "Hg37 mi
10:00 AM38 °FScattered clouds.9 mph72%30.08 "Hg37 mi
9:00 AM37 °FPassing clouds.10 mph77%30.08 "Hg31 mi
8:00 AM35 °FPassing clouds.10 mph82%30.06 "Hg31 mi
7:00 AM33 °FPassing clouds.8 mph84%30.03 "Hg31 mi
6:00 AM34 °FPassing clouds.9 mph81%30.01 "Hg31 mi
5:00 AM34 °FPassing clouds.9 mph83%29.99 "Hg31 mi
Weather by CustomWeather, © 2015

See weather overviewHow to use our weather pages